This is the latest recevied weather packets stored in our database for station/object OK2ILA-14. If no packets are shown the sender has not sent any weather packets the latest 10 day(s).
| Time | Temp. | Humidity | Pressure | Rain* | Wind** | Luminosity | Snow |
|---|---|---|---|---|---|---|---|
| 1777891445 | 24.44° C | 32% | 1013.8 hPa | - | - | - | - |
| 1777890844 | 23.89° C | 33% | 1013.8 hPa | - | - | - | - |
| 1777890244 | 23.89° C | 31% | 1013.8 hPa | - | - | - | - |
| 1777889644 | 25° C | 32% | 1014 hPa | - | - | - | - |
| 1777889044 | 23.89° C | 33% | 1014 hPa | - | - | - | - |
| 1777888444 | 23.33° C | 35% | 1014.1 hPa | - | - | - | - |
| 1777887844 | 21.67° C | 36% | 1014.3 hPa | - | - | - | - |
| 1777887244 | 22.78° C | 35% | 1014.3 hPa | - | - | - | - |
| 1777886667 | 22.22° C | 35% | 1014.3 hPa | - | - | - | - |
| 1777886067 | 22.22° C | 35% | 1014.2 hPa | - | - | - | - |
| 1777885467 | 22.78° C | 34% | 1014.4 hPa | - | - | - | - |
| 1777884867 | 23.33° C | 35% | 1014.3 hPa | - | - | - | - |
| 1777884266 | 22.78° C | 34% | 1014.3 hPa | - | - | - | - |
| 1777883666 | 22.22° C | 35% | 1014.4 hPa | - | - | - | - |
| 1777883066 | 21.67° C | 35% | 1014.5 hPa | - | - | - | - |
| 1777882466 | 21.67° C | 35% | 1014.5 hPa | - | - | - | - |
| 1777881866 | 21.67° C | 35% | 1014.5 hPa | - | - | - | - |
| 1777881266 | 20° C | 37% | 1014.5 hPa | - | - | - | - |
| 1777880666 | 20° C | 36% | 1014.4 hPa | - | - | - | - |
| 1777880065 | 20.56° C | 37% | 1014.4 hPa | - | - | - | - |
| 1777879466 | 20.56° C | 36% | 1014.4 hPa | - | - | - | - |
| 1777878865 | 21.11° C | 37% | 1014.4 hPa | - | - | - | - |
| 1777878265 | 20.56° C | 37% | 1014.5 hPa | - | - | - | - |
| 1777877665 | 20° C | 38% | 1014.4 hPa | - | - | - | - |
| 1777877072 | 20° C | 38% | 1014.4 hPa | - | - | - | - |
* Rain since midnight (hover to see other rain measurements)
** Current wind speed in m/s (hover to see current wind gust speed)